User: anonymous   Login
Location: Unspecified
(0.0000°N, 0.0000°E)
Time: 07:22:00
(UTC+02:00)
Language:

Cosmos 2263 Rocket - Orbit

View from above orbital plane
View from above orbital plane
View from above satellite
View from above satellite

Ground track
Ground track

The orbit data is extracted from the following two-line orbital elements,

1 22803U 93059B   17175.56847453 +.00000065 +00000-0 +56618-4 0  9995
2 22803 070.9897 233.8836 0016834 007.0965 353.0393 14.16771190229072
Epoch (UTC): 24 June 2017 13:38:36
Eccentricity: 0.0016834
inclination: 70.9897°
perigee height: 824 km
apogee height: 848 km
right ascension of ascending node: 233.8836°
argument of perigee: 7.0965°
revolutions per day: 14.16771190
mean anomaly at epoch: 353.0393°
orbit number at epoch: 22907

The dashed part of the orbit path shows where the satellite is in the earth's shadow,  

DLR